Wind_Speed
9 8 7 7 6 8 5 3 4 3 5 5 6 6 7 8 9 10 11 12 12 12 12 13 13 13 14 15 15 15 14 14 14 14 13 13 13 12 12 12 12 11 11 11 11 11 10 10 10
9 8 7 6 6 4 2 2 5 6 7 7 7 7 8 10 10 11 13 13 14 13 13 14 14 15 15 16 16 16 16 16 16 15 15 14 14 13 13 13 13 13 12 12 12 12 11 11 11
9 8 7 6 4 1 1 4 5 6 8 8 9 9 10 11 12 13 14 14 15 14 14 15 15 16 16 17 17 17 17 18 18 17 17 16 15 15 15 15 14 14 14 13 13 13 13 12 12
9 8 7 6 3 1 5 7 7 7 8 9 10 11 12 12 14 15 15 16 16 15 14 16 16 16 17 17 18 18 18 18 19 19 18 18 17 16 16 16 16 15 15 15 14 14 14 14 14
9 7 6 5 1 5 8 8 7 7 8 9 11 14 15 14 15 16 16 17 17 16 16 17 17 17 18 18 19 19 19 19 19 19 19 19 19 18 18 18 17 17 16 16 16 15 15 15 15
8 6 4 2 2 9 11 11 8 8 9 10 11 15 16 15 16 17 17 17 18 18 18 18 18 19 19 19 20 20 20 20 20 20 20 20 19 19 19 19 19 19 18 18 17 17 17 17 16
8 5 3 2 4 9 13 13 12 10 11 12 13 15 17 17 16 17 18 18 20 19 19 19 19 20 20 20 21 21 21 21 21 21 22 22 21 20 20 20 21 20 20 19 19 18 18 18 18
6 4 3 3 5 9 14 14 13 14 13 14 15 16 18 19 18 18 18 19 20 20 20 20 20 20 21 21 22 22 22 22 22 22 22 22 22 22 21 21 21 21 21 21 20 20 19 19 19
5 3 4 7 9 11 13 14 15 14 16 16 16 17 20 19 19 19 19 20 20 21 21 21 21 22 22 22 23 23 23 23 23 23 23 23 23 23 23 22 22 23 23 22 22 21 21 20 20
5 5 7 9 11 13 13 15 15 14 15 17 17 19 19 19 19 19 20 21 21 21 22 22 22 23 24 24 24 24 24 23 23 23 23 24 24 24 24 24 23 23 23 23 23 22 23 22 22
7 8 8 9 12 13 13 15 16 16 16 17 18 19 20 21 21 21 22 22 22 22 23 23 23 24 24 25 24 25 25 25 24 24 24 24 25 24 24 24 24 23 23 22 23 23 23 23 23
6 8 9 11 12 14 15 15 16 17 18 18 18 20 22 22 21 22 22 23 22 23 24 24 24 25 25 25 26 26 26 26 26 26 25 26 25 25 25 24 24 24 24 24 24 23 24 24 24
6 9 10 12 14 14 15 16 17 16 17 18 19 21 23 23 24 24 24 23 23 24 24 25 26 26 27 26 27 27 27 27 27 28 26 26 27 26 25 25 24 25 25 26 25 24 24 24 24
7 9 11 12 14 14 16 17 18 16 18 19 20 22 23 24 25 25 24 24 24 25 25 26 27 27 28 28 28 28 28 28 27 27 27 28 27 27 27 26 26 26 27 27 26 26 25 25 26
7 9 11 12 14 16 18 19 18 18 20 22 22 23 24 24 25 25 24 25 25 25 26 27 28 28 28 28 28 28 28 28 27 28 29 29 29 28 28 28 28 28 28 28 28 27 27 27 26
7 10 12 15 17 19 19 19 19 20 22 23 23 24 24 24 26 26 26 26 27 27 27 28 29 29 28 28 28 28 28 29 29 29 29 29 29 29 29 28 28 29 29 29 28 27 28 28 27
9 12 14 17 18 20 20 21 22 23 21 24 25 25 25 26 27 27 28 28 28 28 28 28 29 29 29 28 28 28 29 29 30 30 29 29 30 30 29 29 29 29 29 28 28 27 28 29 28
13 14 15 16 18 20 22 23 23 24 22 23 26 27 28 28 27 27 28 28 28 28 28 28 28 29 29 29 28 28 29 30 30 31 30 31 31 30 30 30 30 29 29 29 28 28 28 28 28
15 15 15 17 18 20 22 24 24 23 23 24 26 28 28 28 27 26 28 29 29 28 29 28 29 29 29 29 29 28 28 30 30 31 30 31 32 31 30 30 30 29 29 29 29 29 29 28 28
16 18 18 19 19 20 22 23 23 22 24 26 27 28 27 27 28 27 28 29 29 29 29 29 29 30 30 30 29 28 29 30 31 31 31 31 31 31 31 31 30 29 29 28 29 29 29 29 29
17 17 19 20 20 20 21 20 21 23 25 27 28 28 27 28 29 30 30 30 30 29 29 29 29 30 30 30 30 30 30 31 31 30 30 30 31 31 30 30 29 28 28 28 29 29 29 29 29
18 19 20 20 21 19 17 19 22 25 27 28 29 29 28 30 31 31 31 31 30 30 30 29 30 30 30 30 30 30 30 30 30 30 30 30 30 30 29 29 28 28 28 28 28 29 29 29 28
18 19 20 20 20 17 16 17 23 26 28 29 29 28 30 31 30 30 30 31 31 30 30 30 29 29 29 30 30 29 29 29 30 29 29 28 28 27 27 26 27 27 26 27 27 28 28 27 27
20 21 20 18 18 17 17 19 25 27 29 30 30 29 31 31 31 30 31 31 32 31 30 30 29 29 29 29 29 28 28 29 28 28 27 26 26 26 25 25 25 25 25 25 26 27 26 26 26
19 20 20 19 18 19 20 21 25 27 30 31 31 31 32 34 33 32 31 31 32 30 29 29 29 29 28 28 28 28 28 28 28 27 25 25 25 25 25 24 24 24 24 25 26 26 25 24 24
20 21 21 22 22 22 19 21 25 27 29 33 33 33 34 33 33 33 31 31 31 29 28 29 28 28 27 27 28 28 27 27 25 24 24 24 25 24 24 23 23 23 23 24 24 24 23 23 24
21 21 20 21 21 21 19 21 25 26 27 31 32 32 33 31 30 31 31 31 31 30 30 29 28 26 26 27 27 26 26 25 24 23 23 23 24 24 23 23 23 23 22 23 23 23 22 22 22
21 20 20 21 21 21 20 22 25 26 28 29 30 31 31 31 30 30 30 31 30 29 29 28 27 26 25 26 25 24 23 23 23 22 22 22 23 22 22 21 21 21 21 22 22 22 22 22 22
21 19 19 21 21 22 23 25 26 28 29 30 31 31 31 32 31 30 30 30 29 28 27 27 26 26 26 25 24 23 22 21 22 21 22 22 21 21 21 19 19 19 20 20 21 21 21 20 20
21 21 22 22 23 23 26 27 28 29 31 31 31 31 31 30 30 30 29 28 27 27 26 25 25 25 25 24 23 23 22 21 21 21 21 21 21 20 19 18 18 18 19 19 19 19 19 19 19
Wind_Direction
155 144 134 122 106 86 66 8 310 287 283 282 297 311 318 321 326 320 326 328 328 325 325 324 319 317 316 314 310 306 305 302 299 298 297 296 295 293 289 288 287 285 283 280 279 276 274 275 276
161 155 147 127 85 75 54 283 294 295 299 305 310 316 316 317 328 323 325 328 328 326 325 324 319 315 312 311 308 305 304 302 298 296 295 294 293 291 290 289 287 285 285 283 280 278 275 275 275
163 160 149 129 95 62 289 263 283 300 301 309 316 316 310 315 317 319 323 324 323 322 324 324 321 316 311 309 307 305 303 301 298 295 295 294 292 291 289 289 287 285 284 283 282 279 276 274 274
166 163 147 121 119 284 274 270 267 288 298 309 310 309 308 315 316 317 321 321 321 320 321 320 321 318 314 311 308 304 302 300 298 296 295 295 293 290 289 289 287 286 284 283 281 279 277 275 273
172 159 141 122 171 262 264 264 279 293 299 303 301 302 303 311 312 315 319 319 320 321 320 320 320 318 315 313 310 306 303 301 298 296 295 295 294 290 289 289 286 285 284 283 281 278 277 276 274
179 165 138 150 255 277 275 282 284 287 294 296 294 296 304 314 315 315 314 316 317 319 319 318 319 317 315 313 311 307 303 301 299 297 294 292 291 290 288 288 286 284 283 282 281 280 278 278 276
178 166 171 186 266 278 279 285 287 288 288 290 298 300 306 310 313 315 313 313 313 314 315 317 318 316 315 314 310 307 303 301 301 299 296 291 289 288 286 287 286 285 284 282 280 279 277 277 276
169 166 200 244 264 272 277 286 292 294 294 298 301 303 302 304 311 315 312 311 312 312 313 315 315 315 314 313 309 306 304 302 301 300 298 293 289 288 287 286 285 284 283 282 279 277 276 275 275
166 174 239 249 252 259 273 283 290 297 298 300 302 301 302 305 307 309 309 309 310 310 311 312 312 312 312 312 310 306 304 304 301 296 295 293 290 288 288 286 284 283 281 280 278 278 276 275 274
188 226 250 254 260 261 277 285 290 295 298 299 301 300 302 306 305 306 307 307 307 308 309 309 310 309 309 308 308 307 305 304 302 298 296 294 291 290 289 286 284 282 281 279 279 278 276 275 273
223 240 257 266 274 278 282 287 291 293 298 298 301 303 303 305 306 306 306 304 304 306 306 306 307 307 307 306 306 305 304 302 301 300 298 294 292 292 291 287 283 281 281 279 279 277 276 275 274
246 256 268 275 281 286 289 292 292 294 296 298 302 303 306 306 305 304 302 301 302 304 305 306 305 306 306 306 304 303 302 301 300 298 298 296 296 294 290 288 285 282 282 281 280 278 275 274 273
268 274 283 286 288 294 299 298 294 299 302 304 307 307 308 308 306 305 304 301 300 302 303 303 303 305 305 304 303 303 302 302 301 300 300 300 298 296 294 289 288 286 284 282 280 277 277 276 273
277 288 293 292 297 302 304 304 300 303 306 305 302 302 303 304 304 305 303 301 300 300 301 303 301 302 303 303 302 302 302 302 301 301 300 299 298 297 294 290 290 290 287 285 282 277 277 278 276
294 304 304 306 306 302 302 305 306 305 303 302 300 300 300 302 304 305 305 301 301 300 299 302 303 302 303 302 301 301 300 300 300 301 300 298 298 296 294 291 291 290 287 285 282 278 277 278 278
313 320 308 300 299 299 301 302 303 303 303 302 303 303 302 303 304 304 303 302 301 300 299 300 301 301 301 300 300 300 300 299 299 299 299 297 297 295 294 293 292 290 289 288 285 281 279 279 277
309 294 288 289 295 299 299 299 300 301 300 302 303 303 303 302 302 303 303 303 301 300 300 298 298 299 298 299 297 296 298 298 298 298 298 298 297 295 295 295 293 290 290 289 285 281 281 278 277
278 278 284 291 296 297 297 295 296 299 301 300 301 302 303 302 302 301 302 303 301 301 300 299 298 298 297 296 296 296 296 296 296 296 298 297 297 295 295 295 292 289 287 287 286 282 280 279 278
278 280 288 289 290 295 299 299 301 303 303 301 302 303 303 302 302 302 302 303 301 301 300 298 297 297 295 296 294 295 296 296 295 296 296 295 296 294 294 294 293 291 290 289 286 283 280 279 277
290 290 291 289 292 295 299 303 306 302 300 300 302 302 303 302 302 303 303 303 301 302 300 299 297 295 295 295 298 297 296 296 296 296 296 296 296 294 294 293 292 292 291 290 289 286 282 278 276
289 292 290 291 294 297 302 303 299 297 297 300 301 302 304 302 303 304 304 302 302 302 299 298 297 295 294 296 296 297 298 300 298 298 299 296 296 296 296 295 293 292 291 292 290 287 284 280 277
294 292 293 296 301 302 301 296 294 295 298 298 299 300 303 303 303 304 303 302 301 301 300 299 298 296 295 296 296 297 298 299 301 301 300 298 297 296 296 295 292 291 292 293 291 288 284 281 278
297 300 304 307 308 303 300 295 290 293 294 297 298 300 303 303 304 304 303 302 302 302 302 302 301 298 297 296 296 298 299 300 301 301 301 300 299 297 296 295 294 293 292 294 293 291 286 282 279
302 303 307 309 305 295 288 287 287 286 290 297 300 303 302 302 305 305 304 303 302 301 300 301 301 299 297 297 297 297 299 300 300 301 301 301 300 298 296 295 295 293 292 293 293 292 288 284 282
306 308 309 305 300 293 290 286 286 291 296 298 300 302 304 305 305 305 305 304 304 301 300 300 300 301 300 298 298 297 299 298 298 299 299 299 300 299 298 297 294 293 292 292 292 292 289 285 281
310 310 310 305 303 300 297 291 292 295 299 302 303 303 305 305 305 304 305 304 304 305 304 302 300 300 300 299 299 298 298 298 298 297 297 298 300 299 298 297 295 294 294 294 294 293 290 286 281
311 308 305 300 303 303 300 295 294 296 297 298 300 302 304 305 305 306 307 307 306 303 303 302 301 301 300 300 301 300 300 299 300 298 296 297 300 300 298 297 295 295 295 295 293 292 291 289 286
307 305 304 305 306 305 303 298 297 299 301 303 303 305 306 307 306 306 307 308 309 308 306 306 304 305 304 303 303 304 302 300 302 303 300 298 298 300 299 298 295 294 296 297 294 293 293 290 287
302 300 301 301 299 301 303 301 303 302 303 301 302 304 306 308 309 308 306 307 306 308 308 307 306 303 303 303 302 304 302 300 300 302 302 300 300 301 302 300 299 297 298 299 297 295 295 292 289
303 304 305 305 304 302 300 301 304 303 303 304 305 303 303 305 307 307 307 306 307 308 307 306 304 302 303 302 302 303 303 301 301 302 301 300 301 301 301 301 301 300 302 302 301 297 295 296 294
Height
5898 5900 5901 5903 5904 5904 5906 5908 5907 5905 5904 5903 5903 5902 5901 5900 5900 5900 5898 5895 5894 5893 5891 5890 5889 5888 5887 5886 5885 5884 5883 5882 5881 5880 5879 5878 5877 5876 5875 5874 5874 5873 5872 5872 5871 5871 5870 5870 5870
5898 5900 5902 5903 5903 5905 5907 5908 5907 5905 5904 5903 5902 5901 5900 5899 5898 5897 5896 5895 5893 5892 5890 5889 5887 5886 5885 5884 5883 5882 5881 5880 5879 5878 5877 5876 5875 5874 5873 5872 5872 5871 5870 5869 5869 5868 5868 5868 5868
5898 5900 5902 5903 5905 5907 5908 5907 5906 5905 5903 5902 5902 5901 5899 5898 5897 5896 5895 5893 5892 5891 5889 5887 5886 5884 5883 5882 5880 5879 5878 5877 5876 5875 5874 5873 5872 5871 5871 5870 5869 5869 5868 5867 5867 5866 5866 5865 5865
5898 5900 5902 5904 5906 5907 5907 5906 5904 5904 5903 5902 5901 5900 5898 5897 5896 5895 5893 5892 5890 5889 5888 5886 5884 5882 5881 5879 5878 5877 5876 5874 5873 5872 5871 5870 5869 5869 5868 5867 5866 5866 5865 5865 5864 5864 5863 5863 5863
5897 5899 5901 5903 5906 5907 5906 5904 5903 5904 5902 5901 5900 5898 5896 5896 5894 5893 5891 5889 5888 5887 5886 5884 5882 5880 5879 5877 5875 5874 5873 5871 5870 5869 5868 5867 5866 5866 5865 5864 5863 5863 5862 5862 5861 5861 5860 5860 5860
5897 5898 5902 5905 5907 5907 5904 5902 5902 5902 5900 5899 5898 5896 5894 5893 5893 5891 5889 5887 5886 5885 5883 5882 5880 5878 5876 5874 5873 5871 5870 5868 5867 5866 5865 5863 5862 5862 5861 5860 5860 5859 5859 5858 5858 5857 5857 5857 5856
5897 5899 5903 5905 5907 5906 5903 5901 5901 5900 5899 5897 5895 5894 5892 5890 5889 5888 5886 5885 5883 5882 5881 5879 5877 5875 5874 5872 5870 5868 5867 5865 5864 5862 5861 5860 5859 5858 5857 5857 5856 5855 5855 5854 5854 5854 5853 5853 5853
5896 5899 5902 5904 5905 5905 5902 5900 5899 5898 5897 5895 5894 5892 5890 5888 5886 5884 5883 5883 5881 5879 5877 5876 5875 5873 5871 5869 5867 5865 5863 5862 5860 5858 5857 5855 5854 5854 5853 5852 5852 5851 5851 5850 5850 5849 5849 5849 5849
5896 5899 5901 5902 5902 5902 5900 5899 5898 5896 5894 5893 5891 5890 5888 5886 5884 5882 5881 5880 5878 5876 5874 5873 5871 5869 5868 5866 5864 5862 5860 5858 5856 5854 5852 5851 5850 5849 5848 5848 5847 5846 5846 5845 5845 5845 5845 5845 5844
5896 5898 5899 5899 5899 5898 5898 5897 5895 5894 5892 5891 5889 5887 5886 5883 5881 5879 5878 5876 5875 5873 5871 5870 5868 5866 5864 5862 5860 5858 5856 5855 5852 5850 5848 5847 5845 5845 5844 5843 5842 5841 5841 5840 5840 5840 5840 5840 5840
5895 5897 5897 5896 5897 5895 5895 5894 5892 5891 5889 5888 5886 5884 5882 5880 5878 5876 5875 5873 5871 5870 5868 5866 5864 5862 5860 5858 5856 5854 5852 5850 5848 5847 5844 5842 5841 5840 5839 5838 5838 5836 5836 5835 5835 5835 5835 5835 5835
5895 5895 5895 5895 5894 5893 5892 5891 5890 5888 5887 5885 5883 5881 5879 5877 5876 5874 5872 5869 5867 5865 5864 5862 5860 5858 5856 5854 5852 5850 5848 5846 5844 5842 5840 5838 5836 5835 5834 5833 5833 5832 5831 5830 5830 5829 5829 5829 5829
5894 5894 5894 5893 5892 5890 5889 5888 5886 5885 5883 5881 5880 5878 5876 5874 5872 5870 5868 5865 5864 5862 5860 5858 5855 5853 5851 5849 5847 5845 5843 5841 5839 5837 5835 5834 5832 5830 5828 5828 5827 5827 5826 5825 5824 5823 5823 5823 5823
5893 5893 5892 5891 5890 5888 5887 5886 5884 5882 5880 5878 5877 5875 5873 5870 5868 5866 5864 5862 5859 5857 5855 5853 5850 5847 5846 5844 5842 5840 5838 5836 5834 5832 5830 5829 5826 5825 5823 5822 5822 5821 5820 5819 5818 5817 5817 5817 5817
5891 5892 5891 5890 5888 5887 5885 5883 5881 5880 5877 5875 5873 5871 5869 5866 5864 5862 5860 5858 5854 5852 5850 5848 5845 5843 5841 5839 5837 5835 5832 5830 5829 5827 5825 5823 5821 5820 5818 5817 5816 5815 5813 5812 5811 5811 5810 5811 5811
5890 5890 5891 5890 5887 5885 5884 5881 5878 5876 5874 5871 5869 5866 5864 5862 5859 5857 5855 5853 5850 5848 5845 5843 5841 5838 5836 5834 5831 5829 5827 5825 5823 5821 5819 5817 5815 5814 5812 5811 5810 5808 5807 5806 5805 5804 5804 5804 5804
5889 5890 5890 5888 5885 5883 5881 5878 5876 5873 5870 5867 5865 5862 5859 5856 5854 5852 5850 5848 5845 5843 5840 5837 5835 5833 5831 5828 5826 5824 5821 5819 5817 5816 5813 5812 5810 5808 5806 5805 5803 5802 5800 5799 5798 5798 5798 5797 5797
5888 5887 5886 5884 5882 5879 5877 5874 5872 5870 5866 5863 5860 5857 5855 5852 5850 5847 5845 5842 5839 5837 5834 5831 5829 5827 5824 5822 5820 5818 5816 5814 5811 5809 5807 5805 5804 5802 5800 5798 5796 5795 5794 5793 5792 5791 5790 5790 5789
5883 5882 5881 5881 5878 5875 5873 5870 5867 5865 5862 5858 5855 5853 5850 5847 5845 5842 5840 5836 5833 5830 5828 5826 5823 5820 5817 5815 5813 5811 5809 5807 5805 5802 5800 5799 5797 5795 5793 5791 5790 5788 5787 5786 5784 5783 5783 5782 5782
5880 5878 5877 5876 5874 5872 5869 5865 5863 5859 5857 5854 5851 5848 5846 5843 5840 5838 5834 5831 5828 5824 5822 5820 5817 5814 5811 5809 5806 5805 5803 5801 5798 5795 5794 5792 5790 5788 5786 5785 5783 5781 5780 5778 5778 5776 5776 5775 5775
5876 5875 5873 5872 5870 5868 5865 5862 5858 5854 5851 5848 5845 5843 5840 5837 5834 5832 5829 5826 5822 5819 5816 5813 5811 5809 5806 5803 5801 5799 5797 5795 5792 5790 5787 5785 5783 5781 5779 5777 5776 5774 5773 5772 5770 5769 5769 5768 5767
5873 5871 5869 5867 5864 5863 5862 5858 5854 5850 5846 5842 5840 5837 5835 5833 5830 5827 5823 5820 5816 5813 5810 5807 5805 5802 5800 5797 5794 5792 5790 5788 5786 5783 5780 5778 5775 5773 5771 5770 5769 5767 5766 5764 5763 5762 5761 5760 5760
5869 5867 5865 5862 5860 5859 5858 5856 5850 5846 5842 5838 5835 5832 5830 5827 5824 5821 5817 5813 5810 5807 5804 5801 5798 5795 5793 5791 5788 5785 5784 5782 5779 5777 5774 5771 5768 5766 5764 5763 5761 5760 5759 5757 5756 5755 5753 5753 5752
5865 5863 5860 5859 5857 5855 5854 5852 5846 5841 5838 5834 5830 5827 5825 5822 5818 5815 5811 5807 5803 5800 5798 5795 5792 5789 5786 5784 5782 5779 5777 5775 5773 5770 5767 5765 5762 5760 5758 5757 5755 5754 5752 5751 5750 5748 5746 5745 5745
5860 5858 5856 5854 5852 5851 5848 5845 5841 5837 5833 5829 5826 5823 5820 5816 5812 5808 5805 5801 5797 5793 5791 5788 5785 5782 5780 5778 5775 5773 5771 5769 5767 5764 5762 5759 5757 5754 5752 5751 5749 5748 5746 5745 5743 5742 5740 5739 5738
5856 5853 5851 5849 5846 5844 5842 5839 5836 5832 5828 5824 5821 5818 5814 5810 5806 5801 5797 5794 5790 5787 5785 5782 5779 5776 5774 5772 5769 5767 5765 5763 5761 5758 5756 5754 5751 5749 5747 5745 5743 5742 5741 5739 5737 5736 5734 5732 5731
5852 5849 5847 5844 5841 5839 5837 5834 5830 5827 5824 5820 5816 5812 5808 5804 5800 5795 5791 5787 5784 5781 5778 5775 5772 5770 5768 5766 5763 5761 5759 5757 5755 5753 5751 5748 5746 5744 5741 5740 5738 5737 5735 5733 5732 5730 5728 5727 5725
5848 5845 5842 5839 5835 5833 5832 5829 5824 5821 5818 5814 5809 5805 5801 5797 5793 5789 5785 5781 5778 5775 5771 5768 5766 5764 5762 5761 5758 5755 5753 5751 5749 5747 5745 5743 5741 5738 5736 5734 5732 5731 5730 5728 5726 5724 5723 5721 5720
5843 5840 5837 5834 5831 5829 5826 5826 5820 5815 5812 5808 5804 5800 5795 5791 5787 5783 5780 5776 5772 5769 5766 5764 5762 5760 5758 5755 5753 5750 5748 5746 5744 5743 5740 5738 5736 5734 5731 5729 5728 5726 5725 5723 5721 5719 5718 5716 5714
5837 5834 5832 5829 5826 5824 5820 5820 5814 5809 5805 5801 5798 5794 5789 5785 5782 5778 5774 5771 5767 5764 5762 5759 5757 5754 5752 5750 5748 5746 5743 5741 5739 5737 5736 5733 5731 5729 5727 5725 5724 5722 5720 5718 5716 5715 5713 5711 5709